Manchester, NH

2:23 PM EDT on July 24, 2016 (GMT -0400)
Manchester

Weather History for KMHT - February, 2013

Change the Weather History Date:

Saturday, February 16, 2013

  Actual Average Record
Temperature  
Mean Temperature 34 °F 28 °F  
Max Temperature 39 °F 37 °F 60 °F (2006)
Min Temperature 28 °F 19 °F -10 °F (1987)
Degree Days  
Heating Degree Days 32    
Cooling Degree Days 0    
Moisture  
Dew Point 25 °F    
Average Humidity 74    
Maximum Humidity 93    
Minimum Humidity 48    
Precipitation  
Precipitation 0.04 in 0.11 in 0.99 in (1984)
Month to date precipitation 1.44  
Year to date precipitation 4.46  
Snow  
Snow 0.00 in - - ()
Month to date snowfall  
Since 1 July snowfall  
Snow Depth 6.00 in    
Sea Level Pressure  
Sea Level Pressure 29.92 in    
Wind  
Wind Speed 5 mph (NNW)    
Max Wind Speed 16 mph    
Max Gust Speed 22 mph    
Visibility 6 miles    
Events Snow    
T = Trace of Precipitation, MM = Missing Value Source: NWS Daily Summary

Daily Weather History Graph

Daily Weather History Graph

Search for Another Location

Airport or City:

Trip Planner

Search our weather history database for the weather conditions in past years. The results will help you decide how hot, cold, wet, or windy it might be!

Date:

Astronomy

Feb. 16, 2013 Rise Set
Actual Time 6:41 AM EST 5:18 PM EST
Civil Twilight 6:12 AM EST 5:47 PM EST
Nautical Twilight 5:39 AM EST 6:20 PM EST
Astronomical Twilight 5:06 AM EST 6:53 PM EST
Moon 9:41 AM EST (2/16) No Moon Set
Length of Visible Light 11h 35m
Length of Day
10h 37m
Waxing Crescent, 39% of the Moon is Illuminated
Feb 16
Waxing Crescent
Feb 17
First Quarter
Feb 25
Full
Mar 4
Last Quarter
Mar 11
New

Hourly Weather History & Observations

Time (EST) Temp. Windchill Dew Point Humidity Pressure Visibility Wind Dir Wind Speed Gust Speed Precip Events Conditions
12:53 AM 30.9 °F - 24.1 °F 76% 29.98 in 10.0 mi Calm Calm - N/A   Overcast
1:53 AM 32.0 °F - 26.1 °F 79% 29.97 in 10.0 mi Calm Calm - N/A   Overcast
2:53 AM 35.1 °F 27.4 °F 25.0 °F 67% 29.97 in 5.0 mi NW 10.4 mph - 0.00 in Snow Light Snow
3:03 AM 35.6 °F 27.1 °F 26.6 °F 70% 29.94 in 3.0 mi NW 12.7 mph 19.6 mph 0.00 in Snow Light Snow
3:16 AM 33.8 °F 27.0 °F 28.4 °F 81% 29.94 in 1.8 mi NW 8.1 mph - 0.00 in Snow Light Snow
3:53 AM 32.0 °F 27.5 °F 30.0 °F 92% 29.99 in 1.0 mi NW 4.6 mph - 0.01 in Snow Light Snow
4:12 AM 32.0 °F 27.5 °F 30.2 °F 93% 29.94 in 0.8 mi NNW 4.6 mph - 0.01 in Snow Light Snow
4:33 AM 32.0 °F 28.7 °F 30.2 °F 93% 29.94 in 1.5 mi NNW 3.5 mph - 0.02 in Snow Light Snow
4:53 AM 32.0 °F 28.7 °F 30.0 °F 92% 29.98 in 1.8 mi North 3.5 mph - 0.02 in Snow Light Snow
5:13 AM 30.2 °F 26.7 °F 28.4 °F 93% 29.93 in 4.0 mi NNW 3.5 mph - 0.00 in Snow Light Snow
5:38 AM 32.0 °F - 28.4 °F 87% 29.93 in 2.0 mi Calm Calm - 0.00 in Snow Light Snow
5:53 AM 30.9 °F - 28.9 °F 92% 29.98 in 3.0 mi Calm Calm - 0.00 in Snow Light Snow
6:02 AM 30.2 °F 26.7 °F 28.4 °F 93% 29.92 in 2.0 mi NNW 3.5 mph - 0.00 in Snow Light Snow
6:08 AM 30.2 °F 26.7 °F 28.4 °F 93% 29.92 in 1.5 mi NNW 3.5 mph - 0.00 in Snow Light Snow
6:17 AM 30.2 °F - 28.4 °F 93% 29.92 in 2.0 mi Calm Calm - 0.01 in Snow Light Snow
6:53 AM 32.0 °F 28.7 °F 28.9 °F 88% 29.97 in 3.0 mi North 3.5 mph - 0.01 in Snow Light Snow
7:00 AM 30.2 °F 26.7 °F 28.4 °F 93% 29.92 in 1.8 mi North 3.5 mph - 0.00 in Snow Light Snow
7:24 AM 30.2 °F 24.3 °F 28.4 °F 93% 29.93 in 2.0 mi North 5.8 mph - 0.00 in Snow Light Snow
7:35 AM 30.2 °F 26.7 °F 28.4 °F 93% 29.93 in 4.0 mi NNW 3.5 mph - 0.00 in Snow Light Snow
7:53 AM 30.9 °F 27.5 °F 28.9 °F 92% 29.98 in 4.0 mi NNW 3.5 mph - 0.00 in Snow Light Snow
8:53 AM 32.0 °F 27.5 °F 28.9 °F 88% 29.99 in 8.0 mi NW 4.6 mph - 0.00 in   Overcast
9:53 AM 34.0 °F 31.0 °F 28.0 °F 79% 29.96 in 10.0 mi NNW 3.5 mph - N/A   Overcast
10:53 AM 35.1 °F 31.0 °F 27.0 °F 72% 29.96 in 10.0 mi NNW 4.6 mph - N/A   Overcast
11:22 AM 35.6 °F - 24.8 °F 65% 29.90 in 10.0 mi Calm Calm - N/A   Overcast
11:53 AM 36.0 °F 32.1 °F 25.0 °F 64% 29.94 in 10.0 mi NNE 4.6 mph - N/A   Overcast
12:53 PM 37.9 °F 34.4 °F 23.0 °F 55% 29.91 in 10.0 mi North 4.6 mph - N/A   Overcast
1:53 PM 39.0 °F 36.8 °F 21.0 °F 49% 29.90 in 10.0 mi Variable 3.5 mph - N/A   Overcast
2:53 PM 37.9 °F 31.5 °F 21.9 °F 53% 29.89 in 10.0 mi NNW 9.2 mph - N/A   Overcast
3:53 PM 37.9 °F 30.5 °F 19.9 °F 48% 29.88 in 10.0 mi North 11.5 mph - N/A   Scattered Clouds
4:53 PM 36.0 °F 27.1 °F 19.9 °F 52% 29.86 in 10.0 mi NNW 13.8 mph - N/A   Mostly Cloudy
5:53 PM 34.0 °F 25.0 °F 18.0 °F 52% 29.89 in 10.0 mi North 12.7 mph - N/A   Overcast
6:53 PM 33.1 °F 24.9 °F 16.0 °F 50% 29.88 in 10.0 mi NNW 10.4 mph - N/A   Overcast
7:53 PM 32.0 °F 26.4 °F 15.1 °F 50% 29.87 in 10.0 mi NNW 5.8 mph - N/A   Overcast
8:53 PM 30.9 °F 20.2 °F 14.0 °F 50% 29.85 in 10.0 mi NNW 15.0 mph 21.9 mph N/A   Overcast
9:53 PM 30.0 °F 18.7 °F 14.0 °F 51% 29.83 in 10.0 mi NNW 16.1 mph - N/A   Overcast
10:53 PM 28.0 °F 17.5 °F 15.1 °F 58% 29.82 in 10.0 mi NNW 12.7 mph 20.7 mph N/A   Overcast
11:53 PM 28.0 °F 17.5 °F 12.0 °F 51% 29.78 in 10.0 mi NNW 12.7 mph - N/A   Overcast